Time,TemperatureF,DewpointF,PressureIn,WindDirection,WindDirectionDegrees,WindSpeedMPH,WindSpeedGustMPH,Humidity,HourlyPrecipIn,Conditions,Clouds,dailyrainin,SolarRadiationWatts/m^2,SoftwareType,DateUTC
2013-03-22 00:04:00,24.8,15.0,30.03,West,276,2.7,2.7,69,0.00,,,0.00,0,TxWx,2013-03-22 05:04:00,
2013-03-22 00:10:00,24.8,15.0,30.03,West,271,3.0,3.3,69,0.00,,,0.00,0,TxWx,2013-03-22 05:10:00,
2013-03-22 00:15:00,24.8,15.0,30.03,West,274,2.4,2.4,69,0.00,,,0.00,0,TxWx,2013-03-22 05:15:00,
2013-03-22 00:20:00,24.7,15.0,30.03,WSW,254,1.8,2.1,69,0.00,,,0.00,0,TxWx,2013-03-22 05:20:00,
2013-03-22 00:25:00,24.7,15.0,30.02,West,269,1.8,1.8,69,0.00,,,0.00,0,TxWx,2013-03-22 05:25:00,
2013-03-22 00:30:00,24.6,15.0,30.03,NW,307,0.6,1.2,70,0.00,,,0.00,0,TxWx,2013-03-22 05:30:00,
2013-03-22 00:35:00,24.7,15.0,30.03,WNW,286,1.8,2.1,70,0.00,,,0.00,0,TxWx,2013-03-22 05:35:00,
2013-03-22 00:40:00,24.6,16.0,30.02,WNW,293,1.5,1.8,70,0.00,,,0.00,0,TxWx,2013-03-22 05:40:00,
2013-03-22 00:45:00,24.6,16.0,30.02,West,274,1.8,1.8,70,0.00,,,0.00,0,TxWx,2013-03-22 05:45:00,
2013-03-22 00:50:00,24.6,16.0,30.03,West,281,3.3,3.3,70,0.00,,,0.00,0,TxWx,2013-03-22 05:50:00,
2013-03-22 00:55:00,24.7,16.0,30.03,WSW,253,3.3,3.6,70,0.00,,,0.00,0,TxWx,2013-03-22 05:55:00,
2013-03-22 01:00:00,24.7,16.0,30.02,WNW,287,3.0,3.6,70,0.00,,,0.00,0,TxWx,2013-03-22 06:00:00,
2013-03-22 01:05:00,24.7,16.0,30.03,West,267,2.7,3.0,70,0.00,,,0.00,0,TxWx,2013-03-22 06:05:00,
2013-03-22 01:10:00,24.7,16.0,30.02,WNW,297,3.9,3.9,70,0.00,,,0.00,0,TxWx,2013-03-22 06:10:00,
2013-03-22 01:15:00,24.6,16.0,30.03,West,278,1.8,2.1,71,0.00,,,0.00,0,TxWx,2013-03-22 06:15:00,
2013-03-22 01:21:00,24.6,16.0,30.03,West,276,3.0,3.0,71,0.00,,,0.00,0,TxWx,2013-03-22 06:21:00,
2013-03-22 01:26:00,24.5,15.0,30.03,WNW,295,1.8,1.8,71,0.00,,,0.00,0,TxWx,2013-03-22 06:26:00,
2013-03-22 01:31:00,24.5,15.0,30.02,NW,307,1.8,2.1,71,0.00,,,0.00,0,TxWx,2013-03-22 06:31:00,
2013-03-22 01:36:00,24.5,15.0,30.02,WNW,294,1.5,1.5,71,0.00,,,0.00,0,TxWx,2013-03-22 06:36:00,
2013-03-22 01:41:00,24.4,15.0,30.02,WNW,284,1.5,1.5,71,0.00,,,0.00,0,TxWx,2013-03-22 06:41:00,
2013-03-22 01:46:00,24.4,15.0,30.02,WNW,298,2.7,2.7,71,0.00,,,0.00,0,TxWx,2013-03-22 06:46:00,
2013-03-22 01:51:00,24.3,15.0,30.02,WNW,293,2.7,3.0,71,0.00,,,0.00,0,TxWx,2013-03-22 06:51:00,
2013-03-22 01:56:00,24.3,15.0,30.02,WNW,289,2.7,2.7,72,0.00,,,0.00,0,TxWx,2013-03-22 06:56:00,
2013-03-22 02:01:00,24.3,15.0,30.02,West,279,1.8,1.8,71,0.00,,,0.00,0,TxWx,2013-03-22 07:01:00,
2013-03-22 02:07:00,24.2,15.0,30.02,WNW,299,1.5,1.5,72,0.00,,,0.00,0,TxWx,2013-03-22 07:07:00,
2013-03-22 02:12:00,24.1,15.0,30.02,WNW,302,0.9,1.2,72,0.00,,,0.00,0,TxWx,2013-03-22 07:12:00,
2013-03-22 02:17:00,24.0,15.0,30.02,West,269,2.4,2.4,72,0.00,,,0.00,0,TxWx,2013-03-22 07:17:00,
2013-03-22 02:22:00,24.0,15.0,30.02,NW,317,1.5,1.5,73,0.00,,,0.00,0,TxWx,2013-03-22 07:22:00,
2013-03-22 02:27:00,23.9,16.0,30.02,NNW,334,2.1,2.1,73,0.00,,,0.00,0,TxWx,2013-03-22 07:27:00,
2013-03-22 02:32:00,23.9,16.0,30.02,WNW,295,0.9,1.2,73,0.00,,,0.00,0,TxWx,2013-03-22 07:32:00,
2013-03-22 02:37:00,23.9,16.0,30.02,North,357,0.9,1.2,74,0.00,,,0.00,0,TxWx,2013-03-22 07:37:00,
2013-03-22 02:42:00,23.6,16.0,30.02,WNW,297,2.1,2.1,74,0.00,,,0.00,0,TxWx,2013-03-22 07:42:00,
2013-03-22 02:48:00,23.6,16.0,30.02,NW,312,3.6,3.6,74,0.00,,,0.00,0,TxWx,2013-03-22 07:48:00,
2013-03-22 02:53:00,23.5,15.0,30.02,WNW,293,1.8,1.8,75,0.00,,,0.00,0,TxWx,2013-03-22 07:53:00,
2013-03-22 02:58:00,23.5,15.0,30.02,WNW,287,1.5,1.8,75,0.00,,,0.00,0,TxWx,2013-03-22 07:58:00,
2013-03-22 03:03:00,23.5,16.0,30.03,NW,304,3.9,3.9,75,0.00,,,0.00,0,TxWx,2013-03-22 08:03:00,
2013-03-22 03:08:00,23.5,16.0,30.02,NW,310,5.1,5.1,74,0.00,,,0.00,0,TxWx,2013-03-22 08:08:00,
2013-03-22 03:13:00,23.4,15.0,30.02,WNW,283,2.1,2.1,75,0.00,,,0.00,0,TxWx,2013-03-22 08:13:00,
2013-03-22 03:18:00,23.3,15.0,30.02,WNW,293,3.0,3.0,75,0.00,,,0.00,0,TxWx,2013-03-22 08:18:00,
2013-03-22 03:23:00,23.3,15.0,30.02,WNW,287,1.8,2.1,75,0.00,,,0.00,0,TxWx,2013-03-22 08:23:00,
2013-03-22 03:29:00,23.4,15.0,30.02,WNW,291,3.0,3.3,74,0.00,,,0.00,0,TxWx,2013-03-22 08:29:00,
2013-03-22 03:34:00,23.2,15.0,30.02,WNW,302,3.3,3.6,74,0.00,,,0.00,0,TxWx,2013-03-22 08:34:00,
2013-03-22 03:39:00,23.2,15.0,30.02,West,268,2.4,3.3,74,0.00,,,0.00,0,TxWx,2013-03-22 08:39:00,
2013-03-22 03:44:00,23.3,15.0,30.02,NW,311,4.5,4.5,74,0.00,,,0.00,0,TxWx,2013-03-22 08:44:00,
2013-03-22 03:49:00,23.3,15.0,30.02,NW,319,2.4,2.4,73,0.00,,,0.00,0,TxWx,2013-03-22 08:49:00,
2013-03-22 03:54:00,23.2,15.0,30.02,NW,310,5.1,5.1,73,0.00,,,0.00,0,TxWx,2013-03-22 08:54:00,
2013-03-22 03:59:00,23.0,15.0,30.02,WNW,301,1.2,1.5,73,0.00,,,0.00,0,TxWx,2013-03-22 08:59:00,
2013-03-22 04:04:00,23.1,15.0,30.02,WNW,283,4.8,4.8,74,0.00,,,0.00,0,TxWx,2013-03-22 09:04:00,
2013-03-22 04:09:00,23.0,15.0,30.02,NW,324,3.9,3.9,74,0.00,,,0.00,0,TxWx,2013-03-22 09:09:00,
2013-03-22 04:15:00,22.9,15.0,30.02,NW,316,0.6,0.9,74,0.00,,,0.00,0,TxWx,2013-03-22 09:15:00,
2013-03-22 04:20:00,22.8,15.0,30.03,NW,309,0.9,0.9,74,0.00,,,0.00,0,TxWx,2013-03-22 09:20:00,
2013-03-22 04:25:00,22.7,15.0,30.03,West,279,1.5,1.5,74,0.00,,,0.00,0,TxWx,2013-03-22 09:25:00,
2013-03-22 04:30:00,22.8,15.0,30.03,NW,323,2.1,2.1,74,0.00,,,0.00,0,TxWx,2013-03-22 09:30:00,
2013-03-22 04:35:00,22.7,15.0,30.03,NW,307,1.5,1.5,74,0.00,,,0.00,0,TxWx,2013-03-22 09:35:00,
2013-03-22 04:40:00,22.7,15.0,30.03,NW,305,2.1,2.1,74,0.00,,,0.00,0,TxWx,2013-03-22 09:40:00,
2013-03-22 04:45:00,22.6,15.0,30.03,NW,309,1.5,1.8,74,0.00,,,0.00,0,TxWx,2013-03-22 09:45:00,
2013-03-22 04:50:00,22.5,14.0,30.03,West,277,2.1,2.1,74,0.00,,,0.00,0,TxWx,2013-03-22 09:50:00,
2013-03-22 04:55:00,22.4,14.0,30.03,West,277,1.5,1.5,75,0.00,,,0.00,0,TxWx,2013-03-22 09:55:00,
2013-03-22 05:01:00,22.4,14.0,30.03,WNW,284,3.0,3.3,75,0.00,,,0.00,0,TxWx,2013-03-22 10:01:00,
2013-03-22 05:06:00,22.3,14.0,30.03,West,276,3.0,3.0,75,0.00,,,0.00,0,TxWx,2013-03-22 10:06:00,
2013-03-22 05:12:00,22.3,14.0,30.03,WNW,298,2.1,2.1,75,0.00,,,0.00,0,TxWx,2013-03-22 10:12:00,
2013-03-22 05:17:00,22.3,14.0,30.03,WNW,284,1.2,1.2,75,0.00,,,0.00,0,TxWx,2013-03-22 10:17:00,
2013-03-22 05:22:00,22.2,14.0,30.03,NW,324,2.7,3.0,75,0.00,,,0.00,0,TxWx,2013-03-22 10:22:00,
2013-03-22 05:27:00,22.2,14.0,30.03,WSW,254,2.4,2.7,75,0.00,,,0.00,0,TxWx,2013-03-22 10:27:00,
2013-03-22 05:33:00,22.0,14.0,30.03,West,277,2.4,3.0,75,0.00,,,0.00,0,TxWx,2013-03-22 10:33:00,
2013-03-22 05:38:00,22.0,14.0,30.04,West,281,3.3,3.3,75,0.00,,,0.00,0,TxWx,2013-03-22 10:38:00,
2013-03-22 05:43:00,21.9,14.0,30.04,WNW,282,2.4,2.7,75,0.00,,,0.00,0,TxWx,2013-03-22 10:43:00,
2013-03-22 05:48:00,21.8,14.0,30.04,West,280,2.7,2.7,75,0.00,,,0.00,0,TxWx,2013-03-22 10:48:00,
2013-03-22 05:54:00,21.8,14.0,30.03,West,279,3.3,3.3,76,0.00,,,0.00,0,TxWx,2013-03-22 10:54:00,
2013-03-22 05:59:00,21.9,14.0,30.03,NW,318,2.4,2.7,76,0.00,,,0.00,0,TxWx,2013-03-22 10:59:00,
2013-03-22 06:04:00,21.8,14.0,30.03,WNW,284,2.7,3.0,75,0.00,,,0.00,0,TxWx,2013-03-22 11:04:00,
2013-03-22 06:09:00,21.8,14.0,30.03,West,278,1.5,1.8,75,0.00,,,0.00,0,TxWx,2013-03-22 11:09:00,
2013-03-22 06:14:00,21.7,14.0,30.03,WNW,297,1.5,1.8,75,0.00,,,0.00,0,TxWx,2013-03-22 11:14:00,
2013-03-22 06:19:00,21.8,14.0,30.03,WNW,282,3.3,4.2,76,0.00,,,0.00,0,TxWx,2013-03-22 11:19:00,
2013-03-22 06:25:00,21.8,14.0,30.04,WNW,295,2.1,2.4,76,0.00,,,0.00,0,TxWx,2013-03-22 11:25:00,
2013-03-22 06:30:00,21.7,14.0,30.04,West,279,3.9,3.9,76,0.00,,,0.00,0,TxWx,2013-03-22 11:30:00,
2013-03-22 06:35:00,21.5,14.0,30.04,WNW,285,2.7,2.7,76,0.00,,,0.00,0,TxWx,2013-03-22 11:35:00,
2013-03-22 06:40:00,21.5,14.0,30.04,West,269,1.5,1.8,76,0.00,,,0.00,2,TxWx,2013-03-22 11:40:00,
2013-03-22 06:45:00,21.4,14.0,30.04,West,274,4.5,4.8,76,0.00,,,0.00,4,TxWx,2013-03-22 11:45:00,
2013-03-22 06:50:00,21.4,14.0,30.04,West,275,5.4,5.7,76,0.00,,,0.00,7,TxWx,2013-03-22 11:50:00,
2013-03-22 06:55:00,21.4,14.0,30.04,West,277,4.5,4.5,76,0.00,,,0.00,11,TxWx,2013-03-22 11:55:00,
2013-03-22 07:01:00,21.2,14.0,30.04,West,279,2.7,3.0,77,0.00,,,0.00,26,TxWx,2013-03-22 12:01:00,
2013-03-22 07:06:00,21.2,14.0,30.04,WNW,298,0.9,1.2,77,0.00,,,0.00,44,TxWx,2013-03-22 12:06:00,
2013-03-22 07:11:00,21.3,14.0,30.04,WNW,290,3.6,4.5,77,0.00,,,0.00,73,TxWx,2013-03-22 12:11:00,
2013-03-22 07:16:00,21.7,15.0,30.03,WNW,301,1.5,1.8,76,0.00,,,0.00,89,TxWx,2013-03-22 12:16:00,
2013-03-22 07:21:00,21.8,14.0,30.03,NW,306,2.4,2.4,75,0.00,,,0.00,130,TxWx,2013-03-22 12:21:00,
2013-03-22 07:26:00,22.1,14.0,30.04,WNW,293,2.1,2.1,75,0.00,,,0.00,146,TxWx,2013-03-22 12:26:00,
2013-03-22 07:32:00,22.4,14.0,30.03,West,277,1.8,1.8,74,0.00,,,0.00,166,TxWx,2013-03-22 12:32:00,
2013-03-22 07:37:00,22.7,15.0,30.04,West,273,1.5,1.5,73,0.00,,,0.00,182,TxWx,2013-03-22 12:37:00,
2013-03-22 07:42:00,22.6,14.0,30.04,West,272,4.5,4.5,72,0.00,,,0.00,199,TxWx,2013-03-22 12:42:00,
2013-03-22 07:47:00,22.8,14.0,30.04,West,275,6.0,6.0,72,0.00,,,0.00,215,TxWx,2013-03-22 12:47:00,
2013-03-22 07:52:00,22.6,14.0,30.04,West,279,8.1,8.1,71,0.00,,,0.00,232,TxWx,2013-03-22 12:52:00,
2013-03-22 07:58:00,22.5,14.0,30.04,WSW,257,6.0,6.0,72,0.00,,,0.00,246,TxWx,2013-03-22 12:58:00,
2013-03-22 08:03:00,22.6,14.0,30.04,West,266,4.8,5.1,72,0.00,,,0.00,260,TxWx,2013-03-22 13:03:00,
2013-03-22 08:08:00,22.9,14.0,30.04,West,259,3.9,4.5,72,0.00,,,0.00,277,TxWx,2013-03-22 13:08:00,
2013-03-22 08:13:00,23.1,14.0,30.04,WSW,244,4.2,4.2,71,0.00,,,0.00,292,TxWx,2013-03-22 13:13:00,
2013-03-22 08:18:00,23.9,15.0,30.04,WNW,282,2.1,2.7,70,0.00,,,0.00,308,TxWx,2013-03-22 13:18:00,
2013-03-22 08:23:00,24.0,14.0,30.03,West,275,3.0,3.3,70,0.00,,,0.00,323,TxWx,2013-03-22 13:23:00,
2013-03-22 08:28:00,24.5,15.0,30.04,West,275,2.4,2.4,69,0.00,,,0.00,339,TxWx,2013-03-22 13:28:00,
2013-03-22 08:34:00,25.1,15.0,30.04,WNW,301,3.3,3.6,69,0.00,,,0.00,354,TxWx,2013-03-22 13:34:00,
2013-03-22 08:39:00,25.4,15.0,30.04,West,275,3.0,3.0,68,0.00,,,0.00,369,TxWx,2013-03-22 13:39:00,
2013-03-22 08:44:00,25.9,16.0,30.04,NW,318,1.8,2.4,68,0.00,,,0.00,384,TxWx,2013-03-22 13:44:00,
2013-03-22 08:49:00,26.2,16.0,30.04,NNW,348,1.5,1.5,68,0.00,,,0.00,397,TxWx,2013-03-22 13:49:00,
2013-03-22 08:54:00,26.3,15.0,30.04,WSW,240,3.6,3.6,67,0.00,,,0.00,411,TxWx,2013-03-22 13:54:00,
2013-03-22 08:59:00,26.8,16.0,30.04,West,273,7.8,7.8,66,0.00,,,0.00,427,TxWx,2013-03-22 13:59:00,
2013-03-22 09:04:00,27.3,16.0,30.04,NW,307,3.9,3.9,65,0.00,,,0.00,441,TxWx,2013-03-22 14:04:00,
2013-03-22 09:10:00,27.3,14.0,30.04,NW,306,5.4,5.7,61,0.00,,,0.00,451,TxWx,2013-03-22 14:10:00,
2013-03-22 09:15:00,28.1,16.0,30.04,WNW,293,3.6,4.5,62,0.00,,,0.00,470,TxWx,2013-03-22 14:15:00,
2013-03-22 09:20:00,28.5,15.0,30.04,NW,310,3.6,3.9,58,0.00,,,0.00,483,TxWx,2013-03-22 14:20:00,
2013-03-22 09:25:00,28.2,14.0,30.04,West,278,4.2,4.8,58,0.00,,,0.00,497,TxWx,2013-03-22 14:25:00,
2013-03-22 09:30:00,29.3,15.0,30.04,North,355,3.3,3.3,57,0.00,,,0.00,512,TxWx,2013-03-22 14:30:00,
2013-03-22 09:35:00,29.1,14.0,30.04,West,281,5.7,6.3,56,0.00,,,0.00,528,TxWx,2013-03-22 14:35:00,
2013-03-22 09:40:00,28.8,13.0,30.04,West,271,0.9,0.9,54,0.00,,,0.00,544,TxWx,2013-03-22 14:40:00,
2013-03-22 09:46:00,29.3,13.0,30.04,WSW,246,2.4,2.7,53,0.00,,,0.00,557,TxWx,2013-03-22 14:46:00,
2013-03-22 09:51:00,29.1,13.0,30.04,WNW,287,4.5,5.7,53,0.00,,,0.00,569,TxWx,2013-03-22 14:51:00,
2013-03-22 09:56:00,29.3,13.0,30.04,WNW,285,6.3,6.9,54,0.00,,,0.00,579,TxWx,2013-03-22 14:56:00,
2013-03-22 10:01:00,29.3,13.0,30.04,West,263,9.9,9.9,53,0.00,,,0.00,594,TxWx,2013-03-22 15:01:00,
2013-03-22 10:06:00,29.4,12.0,30.04,WSW,257,6.0,6.0,52,0.00,,,0.00,606,TxWx,2013-03-22 15:06:00,
2013-03-22 10:11:00,29.7,13.0,30.04,WNW,303,9.3,9.6,50,0.00,,,0.00,618,TxWx,2013-03-22 15:11:00,
2013-03-22 10:17:00,30.2,13.0,30.04,NNW,345,4.5,4.5,51,0.00,,,0.00,632,TxWx,2013-03-22 15:17:00,
2013-03-22 10:22:00,30.6,14.0,30.04,WNW,289,3.0,5.1,50,0.00,,,0.00,642,TxWx,2013-03-22 15:22:00,
2013-03-22 10:27:00,31.0,13.0,30.04,North,9,5.7,6.6,49,0.00,,,0.00,655,TxWx,2013-03-22 15:27:00,
2013-03-22 10:32:00,30.9,13.0,30.04,WSW,243,6.6,7.8,48,0.00,,,0.00,663,TxWx,2013-03-22 15:32:00,
2013-03-22 10:37:00,31.6,13.0,30.04,NW,306,3.3,3.6,48,0.00,,,0.00,670,TxWx,2013-03-22 15:37:00,
2013-03-22 10:43:00,32.3,14.0,30.04,NE,38,5.4,5.4,48,0.00,,,0.00,686,TxWx,2013-03-22 15:43:00,
2013-03-22 10:48:00,32.2,14.0,30.04,West,261,3.0,3.6,48,0.00,,,0.00,697,TxWx,2013-03-22 15:48:00,
2013-03-22 10:53:00,32.2,13.0,30.04,NNW,338,3.0,3.0,48,0.00,,,0.00,705,TxWx,2013-03-22 15:53:00,
2013-03-22 10:58:00,31.5,13.0,30.04,West,270,10.8,10.8,47,0.00,,,0.00,707,TxWx,2013-03-22 15:58:00,
2013-03-22 11:03:00,31.7,14.0,30.04,NW,307,6.3,6.9,48,0.00,,,0.00,713,TxWx,2013-03-22 16:03:00,
2013-03-22 11:09:00,32.0,13.0,30.04,NNE,15,3.6,4.5,48,0.00,,,0.00,742,TxWx,2013-03-22 16:09:00,
2013-03-22 11:14:00,32.0,13.0,30.05,WSW,247,7.8,7.8,46,0.00,,,0.00,742,TxWx,2013-03-22 16:14:00,
2013-03-22 11:19:00,32.7,13.0,30.05,West,279,5.1,5.1,45,0.00,,,0.00,765,TxWx,2013-03-22 16:19:00,
2013-03-22 11:24:00,32.1,12.0,30.05,West,262,5.7,6.0,44,0.00,,,0.00,770,TxWx,2013-03-22 16:24:00,
2013-03-22 11:29:00,33.3,13.0,30.05,West,278,5.1,5.1,46,0.00,,,0.00,781,TxWx,2013-03-22 16:29:00,
2013-03-22 11:34:00,32.9,12.0,30.05,West,269,8.1,8.1,43,0.00,,,0.00,789,TxWx,2013-03-22 16:34:00,
2013-03-22 11:39:00,33.0,12.0,30.05,SW,231,3.3,3.6,43,0.00,,,0.00,796,TxWx,2013-03-22 16:39:00,
2013-03-22 11:45:00,33.4,12.0,30.05,WSW,250,7.2,8.4,43,0.00,,,0.00,807,TxWx,2013-03-22 16:45:00,
2013-03-22 11:50:00,33.1,11.0,30.05,WSW,253,4.8,5.1,42,0.00,,,0.00,813,TxWx,2013-03-22 16:50:00,
2013-03-22 11:55:00,34.2,13.0,30.05,West,276,6.3,6.3,44,0.00,,,0.00,818,TxWx,2013-03-22 16:55:00,
2013-03-22 12:00:00,34.5,12.0,30.05,WNW,303,6.0,6.0,42,0.00,,,0.00,824,TxWx,2013-03-22 17:00:00,
2013-03-22 12:05:00,33.8,11.0,30.04,West,277,3.3,4.2,41,0.00,,,0.00,829,TxWx,2013-03-22 17:05:00,
2013-03-22 12:10:00,34.8,13.0,30.04,WSW,252,6.3,6.3,42,0.00,,,0.00,833,TxWx,2013-03-22 17:10:00,
2013-03-22 12:16:00,35.1,12.0,30.04,NW,312,4.2,4.5,40,0.00,,,0.00,841,TxWx,2013-03-22 17:16:00,
2013-03-22 12:21:00,35.3,12.0,30.04,NW,319,4.5,4.5,40,0.00,,,0.00,840,TxWx,2013-03-22 17:21:00,
2013-03-22 12:26:00,35.9,13.0,30.04,NW,310,5.4,5.4,41,0.00,,,0.00,842,TxWx,2013-03-22 17:26:00,
2013-03-22 12:31:00,36.4,13.0,30.03,West,275,5.4,5.4,41,0.00,,,0.00,847,TxWx,2013-03-22 17:31:00,
2013-03-22 12:36:00,35.1,11.0,30.04,WNW,301,6.3,6.3,39,0.00,,,0.00,847,TxWx,2013-03-22 17:36:00,
2013-03-22 12:41:00,35.3,12.0,30.03,SW,219,3.9,3.9,40,0.00,,,0.00,849,TxWx,2013-03-22 17:41:00,
2013-03-22 12:46:00,36.0,13.0,30.03,WNW,289,3.9,3.9,40,0.00,,,0.00,852,TxWx,2013-03-22 17:46:00,
2013-03-22 12:51:00,35.9,13.0,30.03,West,266,6.6,6.6,40,0.00,,,0.00,856,TxWx,2013-03-22 17:51:00,
2013-03-22 12:56:00,36.1,13.0,30.03,WSW,246,4.8,4.8,40,0.00,,,0.00,853,TxWx,2013-03-22 17:56:00,
2013-03-22 13:02:00,35.9,13.0,30.03,WSW,245,6.6,6.6,40,0.00,,,0.00,854,TxWx,2013-03-22 18:02:00,
2013-03-22 13:07:00,36.9,13.0,30.03,SW,229,3.0,3.0,39,0.00,,,0.00,856,TxWx,2013-03-22 18:07:00,
2013-03-22 13:12:00,37.5,14.0,30.02,NW,323,6.3,6.3,39,0.00,,,0.00,855,TxWx,2013-03-22 18:12:00,
2013-03-22 13:17:00,36.8,13.0,30.03,NNE,27,4.2,4.2,38,0.00,,,0.00,853,TxWx,2013-03-22 18:17:00,
2013-03-22 13:22:00,37.2,13.0,30.02,NW,313,3.6,3.6,39,0.00,,,0.00,852,TxWx,2013-03-22 18:22:00,
2013-03-22 13:27:00,37.8,14.0,30.02,NW,306,4.2,4.2,39,0.00,,,0.00,851,TxWx,2013-03-22 18:27:00,
2013-03-22 13:33:00,37.5,14.0,30.02,West,274,9.3,9.3,38,0.00,,,0.00,847,TxWx,2013-03-22 18:33:00,
2013-03-22 13:38:00,37.3,13.0,30.02,NW,305,4.5,4.5,38,0.00,,,0.00,845,TxWx,2013-03-22 18:38:00,
2013-03-22 13:43:00,37.4,12.0,30.01,NNW,335,7.2,7.2,38,0.00,,,0.00,847,TxWx,2013-03-22 18:43:00,
2013-03-22 13:48:00,38.0,12.0,30.01,North,360,3.6,3.9,36,0.00,,,0.00,843,TxWx,2013-03-22 18:48:00,
2013-03-22 13:53:00,38.2,13.0,30.01,NNE,18,2.7,3.0,37,0.00,,,0.00,843,TxWx,2013-03-22 18:53:00,
2013-03-22 13:58:00,38.0,13.0,30.01,WNW,283,10.2,10.2,37,0.00,,,0.00,839,TxWx,2013-03-22 18:58:00,
2013-03-22 14:03:00,38.2,13.0,30.01,NNE,29,3.6,3.6,37,0.00,,,0.00,838,TxWx,2013-03-22 19:03:00,
2013-03-22 14:08:00,38.4,14.0,30.00,NW,310,6.9,8.1,38,0.00,,,0.00,827,TxWx,2013-03-22 19:08:00,
2013-03-22 14:14:00,37.9,13.0,30.00,West,278,7.2,7.2,38,0.00,,,0.00,821,TxWx,2013-03-22 19:14:00,
2013-03-22 14:19:00,37.8,13.0,30.00,ESE,108,4.2,4.2,37,0.00,,,0.00,811,TxWx,2013-03-22 19:19:00,
2013-03-22 14:24:00,39.0,14.0,30.00,NNW,339,1.5,1.8,37,0.00,,,0.00,802,TxWx,2013-03-22 19:24:00,
2013-03-22 14:29:00,37.9,12.0,30.00,West,275,7.5,7.5,36,0.00,,,0.00,794,TxWx,2013-03-22 19:29:00,
2013-03-22 14:34:00,38.3,13.0,30.00,WSW,248,2.4,2.4,37,0.00,,,0.00,788,TxWx,2013-03-22 19:34:00,
2013-03-22 14:39:00,39.0,14.0,30.00,NW,315,3.3,4.2,37,0.00,,,0.00,772,TxWx,2013-03-22 19:39:00,
2013-03-22 14:44:00,39.9,15.0,29.99,West,260,3.0,3.0,37,0.00,,,0.00,762,TxWx,2013-03-22 19:44:00,
2013-03-22 14:50:00,39.4,13.0,29.99,WSW,249,3.9,3.9,36,0.00,,,0.00,712,TxWx,2013-03-22 19:50:00,
2013-03-22 14:55:00,39.6,13.0,29.99,NW,323,7.8,7.8,35,0.00,,,0.00,740,TxWx,2013-03-22 19:55:00,
2013-03-22 15:00:00,39.7,14.0,29.99,NNW,339,3.3,3.6,36,0.00,,,0.00,748,TxWx,2013-03-22 20:00:00,
2013-03-22 15:05:00,39.4,13.0,29.99,NE,45,3.0,3.0,35,0.00,,,0.00,729,TxWx,2013-03-22 20:05:00,
2013-03-22 15:10:00,39.5,13.0,29.99,NW,308,2.4,2.7,35,0.00,,,0.00,697,TxWx,2013-03-22 20:10:00,
2013-03-22 15:16:00,39.6,13.0,29.99,WNW,285,7.8,7.8,35,0.00,,,0.00,716,TxWx,2013-03-22 20:16:00,
2013-03-22 15:21:00,39.5,13.0,29.99,NW,313,8.4,8.4,35,0.00,,,0.00,644,TxWx,2013-03-22 20:21:00,
2013-03-22 15:26:00,40.0,14.0,29.99,East,100,1.5,1.8,35,0.00,,,0.00,680,TxWx,2013-03-22 20:26:00,
2013-03-22 15:31:00,40.4,13.0,29.99,SSW,195,1.5,2.1,35,0.00,,,0.00,666,TxWx,2013-03-22 20:31:00,
2013-03-22 15:37:00,40.4,14.0,29.99,WNW,290,6.9,8.1,35,0.00,,,0.00,653,TxWx,2013-03-22 20:37:00,
2013-03-22 15:42:00,40.5,14.0,29.99,East,98,3.6,3.9,35,0.00,,,0.00,638,TxWx,2013-03-22 20:42:00,
2013-03-22 15:47:00,40.1,12.0,29.99,NE,37,4.5,4.5,33,0.00,,,0.00,622,TxWx,2013-03-22 20:47:00,
2013-03-22 15:52:00,40.3,13.0,29.99,SW,235,1.8,1.8,34,0.00,,,0.00,604,TxWx,2013-03-22 20:52:00,
2013-03-22 15:57:00,40.2,13.0,29.99,WSW,258,4.8,5.7,34,0.00,,,0.00,587,TxWx,2013-03-22 20:57:00,
2013-03-22 16:02:00,40.7,13.0,29.98,North,351,2.4,2.7,33,0.00,,,0.00,574,TxWx,2013-03-22 21:02:00,
2013-03-22 16:07:00,40.7,13.0,29.99,NNE,16,3.0,3.0,33,0.00,,,0.00,558,TxWx,2013-03-22 21:07:00,
2013-03-22 16:12:00,40.6,13.0,29.99,NNE,26,2.1,2.1,34,0.00,,,0.00,546,TxWx,2013-03-22 21:12:00,
2013-03-22 16:17:00,40.1,14.0,29.99,NE,49,4.5,5.1,36,0.00,,,0.00,523,TxWx,2013-03-22 21:17:00,
2013-03-22 16:22:00,39.4,14.0,29.99,NNE,16,8.1,9.9,37,0.00,,,0.00,507,TxWx,2013-03-22 21:22:00,
2013-03-22 16:27:00,39.6,14.0,29.99,NNW,345,5.4,6.3,37,0.00,,,0.00,493,TxWx,2013-03-22 21:27:00,
2013-03-22 16:33:00,38.8,14.0,29.99,NNE,25,6.6,7.2,37,0.00,,,0.00,481,TxWx,2013-03-22 21:33:00,
2013-03-22 16:38:00,38.7,14.0,29.99,North,5,9.3,9.3,37,0.00,,,0.00,458,TxWx,2013-03-22 21:38:00,
2013-03-22 16:43:00,39.0,15.0,30.00,NNE,16,9.0,9.0,38,0.00,,,0.00,440,TxWx,2013-03-22 21:43:00,
2013-03-22 16:48:00,39.3,15.0,30.00,North,9,7.2,7.2,38,0.00,,,0.00,427,TxWx,2013-03-22 21:48:00,
2013-03-22 16:53:00,39.5,15.0,30.00,NNW,345,4.2,5.1,37,0.00,,,0.00,415,TxWx,2013-03-22 21:53:00,
2013-03-22 16:58:00,39.0,14.0,30.00,NNE,28,5.1,6.3,37,0.00,,,0.00,403,TxWx,2013-03-22 21:58:00,
2013-03-22 17:04:00,39.1,14.0,30.00,ENE,61,6.9,6.9,37,0.00,,,0.00,387,TxWx,2013-03-22 22:04:00,
2013-03-22 17:09:00,39.3,14.0,30.00,North,353,1.5,1.5,37,0.00,,,0.00,369,TxWx,2013-03-22 22:09:00,
2013-03-22 17:14:00,39.2,14.0,30.00,North,1,5.1,5.1,37,0.00,,,0.00,354,TxWx,2013-03-22 22:14:00,
2013-03-22 17:19:00,38.5,14.0,30.01,NNW,331,3.9,4.5,37,0.00,,,0.00,339,TxWx,2013-03-22 22:19:00,
2013-03-22 17:24:00,38.0,13.0,30.00,NNE,30,5.1,5.1,38,0.00,,,0.00,326,TxWx,2013-03-22 22:24:00,
2013-03-22 17:29:00,37.6,14.0,30.01,NE,39,8.1,8.7,38,0.00,,,0.00,314,TxWx,2013-03-22 22:29:00,
2013-03-22 17:34:00,37.7,14.0,30.01,NNE,24,8.4,8.4,39,0.00,,,0.00,298,TxWx,2013-03-22 22:34:00,
2013-03-22 17:40:00,37.7,14.0,30.01,NNE,32,7.5,7.5,39,0.00,,,0.00,281,TxWx,2013-03-22 22:40:00,
2013-03-22 17:45:00,37.6,14.0,30.01,NNE,33,7.2,7.2,39,0.00,,,0.00,262,TxWx,2013-03-22 22:45:00,
2013-03-22 17:50:00,38.3,14.0,30.01,North,359,4.2,4.8,39,0.00,,,0.00,246,TxWx,2013-03-22 22:50:00,
2013-03-22 17:55:00,37.9,14.0,30.01,North,4,4.8,6.3,39,0.00,,,0.00,229,TxWx,2013-03-22 22:55:00,
2013-03-22 18:00:00,37.3,13.0,30.01,NNE,14,6.0,7.2,39,0.00,,,0.00,211,TxWx,2013-03-22 23:00:00,
2013-03-22 18:05:00,37.1,14.0,30.02,NNE,13,5.7,5.7,40,0.00,,,0.00,195,TxWx,2013-03-22 23:05:00,
2013-03-22 18:10:00,36.8,14.0,30.02,North,359,6.3,6.3,40,0.00,,,0.00,178,TxWx,2013-03-22 23:10:00,
2013-03-22 18:15:00,36.6,14.0,30.02,North,10,9.0,9.0,40,0.00,,,0.00,163,TxWx,2013-03-22 23:15:00,
2013-03-22 18:20:00,36.4,13.0,30.02,NE,34,3.6,4.5,40,0.00,,,0.00,122,TxWx,2013-03-22 23:20:00,
2013-03-22 18:25:00,36.4,13.0,30.02,NNE,24,4.2,4.5,41,0.00,,,0.00,81,TxWx,2013-03-22 23:25:00,
2013-03-22 18:30:00,36.0,13.0,30.02,North,6,6.3,6.3,41,0.00,,,0.00,103,TxWx,2013-03-22 23:30:00,
2013-03-22 18:35:00,35.9,14.0,30.02,NE,51,4.2,4.5,42,0.00,,,0.00,93,TxWx,2013-03-22 23:35:00,
2013-03-22 18:41:00,35.5,14.0,30.02,North,8,5.4,6.0,42,0.00,,,0.00,60,TxWx,2013-03-22 23:41:00,
2013-03-22 18:46:00,35.2,14.0,30.03,NNE,16,5.4,5.4,43,0.00,,,0.00,19,TxWx,2013-03-22 23:46:00,
2013-03-22 18:51:00,34.8,14.0,30.03,North,7,3.6,3.9,43,0.00,,,0.00,9,TxWx,2013-03-22 23:51:00,
2013-03-22 18:56:00,34.4,13.0,30.03,NE,38,3.9,4.2,44,0.00,,,0.00,5,TxWx,2013-03-22 23:56:00,
2013-03-22 19:02:00,34.1,14.0,30.03,NE,34,4.8,4.8,45,0.00,,,0.00,2,TxWx,2013-03-23 00:02:00,
2013-03-22 19:07:00,33.8,14.0,30.03,NNE,17,4.5,4.5,46,0.00,,,0.00,1,TxWx,2013-03-23 00:07:00,
2013-03-22 19:12:00,33.6,15.0,30.04,North,360,5.7,6.0,47,0.00,,,0.00,0,TxWx,2013-03-23 00:12:00,
2013-03-22 19:17:00,33.2,14.0,30.04,NNE,32,5.1,5.7,47,0.00,,,0.00,0,TxWx,2013-03-23 00:17:00,
2013-03-22 19:22:00,32.9,14.0,30.04,NNE,27,6.3,6.3,48,0.00,,,0.00,0,TxWx,2013-03-23 00:22:00,
2013-03-22 19:28:00,32.7,15.0,30.03,NE,51,3.9,4.2,49,0.00,,,0.00,0,TxWx,2013-03-23 00:28:00,
2013-03-22 19:33:00,32.4,14.0,30.03,NE,45,3.3,3.6,49,0.00,,,0.00,0,TxWx,2013-03-23 00:33:00,
2013-03-22 19:38:00,32.2,14.0,30.03,NE,37,3.9,4.2,50,0.00,,,0.00,0,TxWx,2013-03-23 00:38:00,
2013-03-22 19:43:00,32.0,15.0,30.03,NNE,31,3.9,3.9,51,0.00,,,0.00,0,TxWx,2013-03-23 00:43:00,
2013-03-22 19:48:00,31.7,15.0,30.03,NE,41,3.3,3.3,52,0.00,,,0.00,0,TxWx,2013-03-23 00:48:00,
2013-03-22 19:53:00,31.4,15.0,30.03,NE,38,3.9,4.2,53,0.00,,,0.00,0,TxWx,2013-03-23 00:53:00,
2013-03-22 19:59:00,31.1,15.0,30.03,NNE,31,5.7,5.7,54,0.00,,,0.00,0,TxWx,2013-03-23 00:59:00,
2013-03-22 20:04:00,30.9,16.0,30.03,NE,39,7.2,7.2,55,0.00,,,0.00,0,TxWx,2013-03-23 01:04:00,
2013-03-22 20:09:00,30.7,16.0,30.03,NE,34,6.6,6.9,56,0.00,,,0.00,0,TxWx,2013-03-23 01:09:00,
2013-03-22 20:14:00,30.6,16.0,30.03,NE,41,3.6,3.6,57,0.00,,,0.00,0,TxWx,2013-03-23 01:14:00,
2013-03-22 20:19:00,30.4,16.0,30.03,NE,43,5.4,5.7,57,0.00,,,0.00,0,TxWx,2013-03-23 01:19:00,
2013-03-22 20:24:00,30.4,16.0,30.03,ENE,63,3.9,3.9,58,0.00,,,0.00,0,TxWx,2013-03-23 01:24:00,
2013-03-22 20:29:00,30.3,16.0,30.03,NE,38,2.1,2.4,58,0.00,,,0.00,0,TxWx,2013-03-23 01:29:00,
2013-03-22 20:34:00,30.2,16.0,30.03,NNE,27,3.9,3.9,59,0.00,,,0.00,0,TxWx,2013-03-23 01:34:00,
2013-03-22 20:40:00,30.1,16.0,30.03,ENE,64,5.4,5.4,59,0.00,,,0.00,0,TxWx,2013-03-23 01:40:00,
2013-03-22 20:45:00,30.0,16.0,30.03,NE,42,3.9,3.9,59,0.00,,,0.00,0,TxWx,2013-03-23 01:45:00,
2013-03-22 20:50:00,29.9,16.0,30.03,NNE,33,3.3,3.6,59,0.00,,,0.00,0,TxWx,2013-03-23 01:50:00,
2013-03-22 20:55:00,29.8,17.0,30.04,NE,47,2.7,2.7,60,0.00,,,0.00,0,TxWx,2013-03-23 01:55:00,
2013-03-22 21:00:00,29.7,17.0,30.04,NNE,28,3.3,3.6,60,0.00,,,0.00,0,TxWx,2013-03-23 02:00:00,
2013-03-22 21:06:00,29.7,17.0,30.04,NE,43,2.1,3.3,60,0.00,,,0.00,0,TxWx,2013-03-23 02:06:00,
2013-03-22 21:11:00,29.6,17.0,30.04,NE,40,3.6,3.6,61,0.00,,,0.00,0,TxWx,2013-03-23 02:11:00,
2013-03-22 21:17:00,29.6,17.0,30.04,NE,37,4.8,4.8,61,0.00,,,0.00,0,TxWx,2013-03-23 02:17:00,
2013-03-22 21:22:00,29.5,16.0,30.04,NNE,24,4.8,4.8,61,0.00,,,0.00,0,TxWx,2013-03-23 02:22:00,
2013-03-22 21:27:00,29.4,16.0,30.05,NNE,25,3.6,4.2,61,0.00,,,0.00,0,TxWx,2013-03-23 02:27:00,
2013-03-22 21:32:00,29.4,16.0,30.05,NNE,29,3.3,3.3,61,0.00,,,0.00,0,TxWx,2013-03-23 02:32:00,
2013-03-22 21:38:00,29.5,16.0,30.05,NNE,25,1.5,1.8,61,0.00,,,0.00,0,TxWx,2013-03-23 02:38:00,
2013-03-22 21:43:00,29.4,16.0,30.05,NE,39,2.4,2.7,62,0.00,,,0.00,0,TxWx,2013-03-23 02:43:00,
2013-03-22 21:48:00,29.4,16.0,30.06,NNE,32,0.9,1.2,62,0.00,,,0.00,0,TxWx,2013-03-23 02:48:00,
2013-03-22 21:53:00,29.4,16.0,30.06,NE,39,1.5,1.8,62,0.00,,,0.00,0,TxWx,2013-03-23 02:53:00,
2013-03-22 21:58:00,29.4,17.0,30.06,NE,51,2.7,2.7,62,0.00,,,0.00,0,TxWx,2013-03-23 02:58:00,
2013-03-22 22:03:00,29.3,17.0,30.06,NE,38,3.3,3.6,62,0.00,,,0.00,0,TxWx,2013-03-23 03:03:00,
2013-03-22 22:09:00,29.1,17.0,30.06,NNE,31,3.3,3.3,63,0.00,,,0.00,0,TxWx,2013-03-23 03:09:00,
2013-03-22 22:14:00,29.0,17.0,30.06,NNE,18,3.0,3.3,64,0.00,,,0.00,0,TxWx,2013-03-23 03:14:00,
2013-03-22 22:19:00,28.9,18.0,30.06,NNE,30,4.5,4.5,65,0.00,,,0.00,0,TxWx,2013-03-23 03:19:00,
2013-03-22 22:24:00,28.7,18.0,30.06,NNE,30,5.1,5.4,67,0.00,,,0.00,0,TxWx,2013-03-23 03:24:00,
2013-03-22 22:29:00,28.7,19.0,30.06,NNE,33,4.2,4.2,68,0.00,,,0.00,0,TxWx,2013-03-23 03:29:00,
2013-03-22 22:34:00,28.6,19.0,30.06,NE,43,2.1,2.1,69,0.00,,,0.00,0,TxWx,2013-03-23 03:34:00,
2013-03-22 22:40:00,28.5,18.0,30.06,NE,54,4.2,4.5,70,0.00,,,0.00,0,TxWx,2013-03-23 03:40:00,
2013-03-22 22:45:00,28.5,18.0,30.06,NE,40,2.7,2.7,70,0.00,,,0.00,0,TxWx,2013-03-23 03:45:00,
2013-03-22 22:50:00,28.4,19.0,30.06,ENE,58,2.7,3.0,71,0.00,,,0.00,0,TxWx,2013-03-23 03:50:00,
2013-03-22 22:55:00,28.4,19.0,30.06,ENE,57,1.2,1.5,71,0.00,,,0.00,0,TxWx,2013-03-23 03:55:00,
2013-03-22 23:00:00,28.3,19.0,30.06,ENE,60,1.8,2.1,71,0.00,,,0.00,0,TxWx,2013-03-23 04:00:00,
2013-03-22 23:05:00,28.3,19.0,30.06,ENE,61,2.4,2.7,72,0.00,,,0.00,0,TxWx,2013-03-23 04:05:00,
2013-03-22 23:07:00,28.3,19.0,30.06,ENE,73,1.8,2.1,72,0.00,,,0.00,0,TxWx,2013-03-23 04:07:00,
2013-03-22 23:12:00,28.4,19.0,30.06,NE,54,1.8,1.8,72,0.00,,,0.00,0,TxWx,2013-03-23 04:12:00,
2013-03-22 23:17:00,28.3,19.0,30.06,NE,41,2.7,2.7,73,0.00,,,0.00,0,TxWx,2013-03-23 04:17:00,
2013-03-22 23:22:00,28.3,19.0,30.06,NNE,28,1.2,1.5,73,0.00,,,0.00,0,TxWx,2013-03-23 04:22:00,
2013-03-22 23:27:00,28.3,19.0,30.06,East,87,1.2,1.5,73,0.00,,,0.00,0,TxWx,2013-03-23 04:27:00,
2013-03-22 23:32:00,28.3,19.0,30.06,NE,49,1.5,1.8,73,0.00,,,0.00,0,TxWx,2013-03-23 04:32:00,
2013-03-22 23:37:00,28.3,20.0,30.06,NE,40,2.7,3.0,74,0.00,,,0.00,0,TxWx,2013-03-23 04:37:00,
2013-03-22 23:43:00,28.3,20.0,30.06,NE,36,3.3,3.3,74,0.00,,,0.00,0,TxWx,2013-03-23 04:43:00,
2013-03-22 23:48:00,28.2,20.0,30.06,NE,43,2.4,2.4,74,0.00,,,0.00,0,TxWx,2013-03-23 04:48:00,
2013-03-22 23:53:00,28.2,20.0,30.06,NE,38,2.1,2.4,74,0.00,,,0.00,0,TxWx,2013-03-23 04:53:00,
2013-03-22 23:58:00,28.2,20.0,30.05,NE,35,2.4,2.4,74,0.00,,,0.00,0,TxWx,2013-03-23 04:58:00,